| time (UTC) | temp C | wind direction | speed KPH | gust KPH | rain 1hr cm | rain 24hr cm | rain mn cm | humidity % | barometer mb |
| 20260509053217 | 15 | 241 | 0.0 | 1.6 | 0.00 | 0.00 | 0.00 | 66 | 1008.8 |
| 20260509052717 | 15 | 206 | 0.0 | 4.8 | 0.00 | 0.00 | 0.00 | 65 | 1008.8 |
| 20260509052216 | 15 | 205 | 3.2 | 3.2 | 0.00 | 0.00 | 0.00 | 66 | 1008.8 |
| 20260509051716 | 15 | 187 | 0.0 | 0.0 | 0.00 | 0.00 | 0.00 | 65 | 1008.8 |
| 20260509051216 | 15 | 187 | 0.0 | 0.0 | 0.00 | 0.00 | 0.00 | 65 | 1008.7 |
| 20260509050717 | 15 | 187 | 0.0 | 0.0 | 0.00 | 0.00 | 0.00 | 66 | 1008.7 |
| 20260509050216 | 15 | 187 | 0.0 | 1.6 | 0.00 | 0.00 | 0.00 | 66 | 1008.8 |
| 20260509045715 | 15 | 206 | 0.0 | 3.2 | 0.00 | 0.00 | 0.00 | 66 | 1008.7 |
| 20260509045215 | 15 | 213 | 1.6 | 4.8 | 0.00 | 0.00 | 0.00 | 66 | 1008.7 |
| 20260509044714 | 15 | 208 | 3.2 | 4.8 | 0.00 | 0.00 | 0.00 | 66 | 1008.6 |
| 20260509044214 | 15 | 202 | 0.0 | 6.4 | 0.00 | 0.00 | 0.00 | 66 | 1008.6 |
| 20260509043714 | 15 | 212 | 1.6 | 4.8 | 0.00 | 0.00 | 0.00 | 67 | 1008.5 |
| 20260509043213 | 15 | 219 | 3.2 | 4.8 | 0.00 | 0.00 | 0.00 | 67 | 1008.6 |
| 20260509042713 | 15 | 272 | 1.6 | 3.2 | 0.00 | 0.00 | 0.00 | 68 | 1008.6 |
| 20260509042214 | 15 | 189 | 1.6 | 3.2 | 0.00 | 0.00 | 0.00 | 67 | 1008.6 |
| 20260509041715 | 15 | 188 | 0.0 | 3.2 | 0.00 | 0.00 | 0.00 | 67 | 1008.7 |
| 20260509041212 | 15 | 151 | 0.0 | 1.6 | 0.00 | 0.00 | 0.00 | 65 | 1008.8 |
| 20260509040712 | 15 | 140 | 0.0 | 1.6 | 0.00 | 0.00 | 0.00 | 65 | 1008.8 |
| 20260509040214 | 15 | 210 | 0.0 | 0.0 | 0.00 | 0.00 | 0.00 | 64 | 1008.9 |
| 20260509035711 | 15 | 210 | 0.0 | 0.0 | 0.00 | 0.00 | 0.00 | 63 | 1009.0 |
| 20260509035211 | 15 | 210 | 0.0 | 0.0 | 0.00 | 0.00 | 0.00 | 62 | 1009.0 |
| 20260509034715 | 16 | 210 | 0.0 | 0.0 | 0.00 | 0.00 | 0.00 | 62 | 1008.9 |
| 20260509034212 | 16 | 210 | 0.0 | 0.0 | 0.00 | 0.00 | 0.00 | 61 | 1008.9 |
| 20260509033710 | 16 | 210 | 0.0 | 0.0 | 0.00 | 0.00 | 0.00 | 61 | 1008.8 |
| 20260509033211 | 16 | 210 | 0.0 | 0.0 | 0.00 | 0.00 | 0.00 | 61 | 1008.9 |
| 20260509032710 | 16 | 210 | 0.0 | 0.0 | 0.00 | 0.00 | 0.00 | 60 | 1009.0 |
| 20260509032209 | 16 | 210 | 0.0 | 0.0 | 0.00 | 0.00 | 0.00 | 60 | 1009.1 |
| 20260509031709 | 16 | 210 | 0.0 | 0.0 | 0.00 | 0.00 | 0.00 | 60 | 1009.2 |
| 20260509031209 | 16 | 210 | 0.0 | 0.0 | 0.00 | 0.00 | 0.00 | 60 | 1009.3 |
| 20260509030709 | 16 | 210 | 0.0 | 0.0 | 0.00 | 0.00 | 0.00 | 60 | 1009.2 |
| 20260509030208 | 16 | 210 | 0.0 | 0.0 | 0.00 | 0.00 | 0.00 | 60 | 1009.2 |
| 20260509025708 | 16 | 210 | 0.0 | 0.0 | 0.00 | 0.00 | 0.00 | 60 | 1009.3 |
| 20260509025219 | 16 | 210 | 0.0 | 0.0 | 0.00 | 0.00 | 0.00 | 59 | 1009.4 |
| 20260509024210 | 16 | 210 | 0.0 | 1.6 | 0.00 | 0.00 | 0.00 | 60 | 1009.5 |
| 20260509023710 | 16 | 170 | 0.0 | 3.2 | 0.00 | 0.00 | 0.00 | 59 | 1009.4 |
| 20260509023206 | 16 | 202 | 1.6 | 3.2 | 0.00 | 0.00 | 0.00 | 59 | 1009.4 |
| 20260509022707 | 16 | 106 | 0.0 | 0.0 | 0.00 | 0.00 | 0.00 | 60 | 1009.4 |
| 20260509022206 | 16 | 106 | 0.0 | 1.6 | 0.00 | 0.00 | 0.00 | 59 | 1009.4 |
| 20260509021707 | 16 | 237 | 0.0 | 0.0 | 0.00 | 0.00 | 0.00 | 59 | 1009.4 |
| 20260509021205 | 16 | 237 | 0.0 | 0.0 | 0.00 | 0.00 | 0.00 | 58 | 1009.4 |
| 20260509020705 | 16 | 237 | 0.0 | 0.0 | 0.00 | 0.00 | 0.00 | 58 | 1009.5 |
| 20260509020209 | 16 | 237 | 0.0 | 0.0 | 0.00 | 0.00 | 0.00 | 58 | 1009.4 |
| 20260509015705 | 16 | 237 | 0.0 | 0.0 | 0.00 | 0.00 | 0.00 | 58 | 1009.3 |
| 20260509015205 | 16 | 237 | 0.0 | 0.0 | 0.00 | 0.00 | 0.00 | 57 | 1009.2 |
| 20260509014704 | 16 | 237 | 0.0 | 0.0 | 0.00 | 0.00 | 0.00 | 57 | 1009.2 |
| 20260509014205 | 16 | 237 | 0.0 | 0.0 | 0.00 | 0.00 | 0.00 | 57 | 1009.3 |
| 20260509013708 | 17 | 237 | 0.0 | 0.0 | 0.00 | 0.00 | 0.00 | 56 | 1009.3 |
| 20260509013206 | 17 | 237 | 0.0 | 0.0 | 0.00 | 0.00 | 0.00 | 56 | 1009.3 |
| 20260509012707 | 17 | 237 | 0.0 | 1.6 | 0.00 | 0.00 | 0.00 | 55 | 1009.2 |
| 20260509012206 | 17 | 177 | 0.0 | 3.2 | 0.00 | 0.00 | 0.00 | 54 | 1009.2 |
| 20260509011704 | 17 | 189 | 0.0 | 0.0 | 0.00 | 0.00 | 0.00 | 54 | 1009.2 |
| 20260509011203 | 17 | 189 | 0.0 | 0.0 | 0.00 | 0.00 | 0.00 | 53 | 1009.3 |
| 20260509010702 | 18 | 189 | 0.0 | 0.0 | 0.00 | 0.00 | 0.00 | 52 | 1009.3 |
| 20260509010203 | 18 | 189 | 0.0 | 0.0 | 0.00 | 0.00 | 0.00 | 52 | 1009.2 |
| 20260509005702 | 18 | 189 | 0.0 | 0.0 | 0.00 | 0.00 | 0.00 | 52 | 1009.1 |
| 20260509005202 | 18 | 189 | 0.0 | 0.0 | 0.00 | 0.00 | 0.00 | 53 | 1009.1 |
| 20260509004702 | 18 | 189 | 0.0 | 0.0 | 0.00 | 0.00 | 0.00 | 51 | 1009.1 |
| 20260509004201 | 18 | 189 | 0.0 | 0.0 | 0.00 | 0.00 | 0.00 | 51 | 1009.1 |
| 20260509003703 | 19 | 189 | 0.0 | 0.0 | 0.00 | 0.00 | 0.00 | 52 | 1009.2 |
| 20260509003201 | 19 | 189 | 0.0 | 0.0 | 0.00 | 0.00 | 0.00 | 49 | 1009.2 |
| 20260509002701 | 19 | 189 | 0.0 | 0.0 | 0.00 | 0.00 | 0.00 | 49 | 1009.1 |
| 20260509002201 | 20 | 189 | 0.0 | 4.8 | 0.00 | 0.00 | 0.00 | 48 | 1009.1 |
| 20260509001700 | 20 | 144 | 0.0 | 3.2 | 0.00 | 0.00 | 0.00 | 47 | 1009.2 |
| 20260509001200 | 20 | 174 | 0.0 | 3.2 | 0.00 | 0.00 | 0.00 | 47 | 1009.2 |
| 20260509000700 | 20 | 180 | 0.0 | 4.8 | 0.00 | 0.00 | 0.00 | 47 | 1009.2 |
| 20260509000159 | 20 | 168 | 3.2 | 8.0 | 0.00 | 0.00 | 0.00 | 47 | 1009.1 |
| 20260508235659 | 20 | 216 | 4.8 | 6.4 | 0.00 | 0.00 | 0.00 | 46 | 1009.2 |
| 20260508235201 | 20 | 202 | 1.6 | 8.0 | 0.00 | 0.00 | 0.00 | 46 | 1009.3 |
| 20260508234658 | 21 | 241 | 1.6 | 4.8 | 0.00 | 0.00 | 0.00 | 47 | 1009.3 |
| 20260508234159 | 21 | 201 | 0.0 | 11.3 | 0.00 | 0.00 | 0.00 | 46 | 1009.4 |
| 20260508233700 | 21 | 189 | 1.6 | 3.2 | 0.00 | 0.00 | 0.00 | 46 | 1009.4 |
| 20260508233158 | 21 | 226 | 1.6 | 12.9 | 0.00 | 0.00 | 0.00 | 44 | 1009.4 |
| 20260508232657 | 21 | 192 | 4.8 | 4.8 | 0.00 | 0.00 | 0.00 | 46 | 1009.4 |
| 20260508232200 | 22 | 208 | 0.0 | 1.6 | 0.00 | 0.00 | 0.00 | 44 | 1009.5 |
| 20260508231656 | 22 | 198 | 0.0 | 6.4 | 0.00 | 0.00 | 0.00 | 42 | 1009.5 |
| 20260508231155 | 22 | 206 | 4.8 | 8.0 | 0.00 | 0.00 | 0.00 | 42 | 1009.6 |
| 20260508230659 | 22 | 217 | 6.4 | 9.7 | 0.00 | 0.00 | 0.00 | 43 | 1009.6 |
| 20260508230154 | 22 | 189 | 3.2 | 8.0 | 0.00 | 0.00 | 0.00 | 41 | 1009.7 |
| 20260508225654 | 23 | 255 | 0.0 | 4.8 | 0.00 | 0.00 | 0.00 | 42 | 1009.7 |
| 20260508225155 | 23 | 185 | 0.0 | 12.9 | 0.00 | 0.00 | 0.00 | 42 | 1009.7 |
| 20260508224654 | 22 | 239 | 3.2 | 8.0 | 0.00 | 0.00 | 0.00 | 42 | 1009.6 |
| 20260508224153 | 22 | 220 | 3.2 | 19.3 | 0.00 | 0.00 | 0.00 | 41 | 1009.6 |
| 20260508223654 | 23 | 225 | 1.6 | 14.5 | 0.00 | 0.00 | 0.00 | 38 | 1009.5 |
| 20260508223153 | 23 | 220 | 1.6 | 4.8 | 0.00 | 0.00 | 0.00 | 40 | 1009.5 |
| 20260508222652 | 23 | 191 | 0.0 | 9.7 | 0.00 | 0.00 | 0.00 | 40 | 1009.4 |
| 20260508222154 | 23 | 206 | 3.2 | 9.7 | 0.00 | 0.00 | 0.00 | 38 | 1009.6 |
| 20260508221652 | 23 | 247 | 3.2 | 9.7 | 0.00 | 0.00 | 0.00 | 41 | 1009.6 |
| 20260508221152 | 23 | 246 | 1.6 | 9.7 | 0.00 | 0.00 | 0.00 | 40 | 1009.7 |
| 20260508220651 | 23 | 261 | 1.6 | 4.8 | 0.00 | 0.00 | 0.00 | 41 | 1009.6 |
| 20260508220151 | 23 | 281 | 1.6 | 11.3 | 0.00 | 0.00 | 0.00 | 40 | 1009.5 |
| 20260508215650 | 23 | 222 | 0.0 | 17.7 | 0.00 | 0.00 | 0.00 | 40 | 1009.6 |
| 20260508215150 | 23 | 210 | 16.1 | 16.1 | 0.00 | 0.00 | 0.00 | 39 | 1009.5 |
| 20260508214650 | 23 | 210 | 4.8 | 11.3 | 0.00 | 0.00 | 0.00 | 41 | 1009.5 |
| 20260508214150 | 23 | 215 | 1.6 | 12.9 | 0.00 | 0.00 | 0.00 | 39 | 1009.5 |
| 20260508213651 | 23 | 272 | 4.8 | 17.7 | 0.00 | 0.00 | 0.00 | 41 | 1009.6 |
| 20260508213150 | 23 | 244 | 1.6 | 11.3 | 0.00 | 0.00 | 0.00 | 40 | 1009.6 |
| 20260508212650 | 24 | 250 | 6.4 | 16.1 | 0.00 | 0.00 | 0.00 | 39 | 1009.6 |
| 20260508212150 | 24 | 213 | 0.0 | 9.7 | 0.00 | 0.00 | 0.00 | 40 | 1009.7 |
| 20260508211650 | 24 | 223 | 6.4 | 9.7 | 0.00 | 0.00 | 0.00 | 37 | 1009.7 |
| 20260508210652 | 23 | 264 | 0.0 | 6.4 | 0.00 | 0.00 | 0.00 | 41 | 1009.8 |
| 20260508210150 | 23 | 206 | 1.6 | 9.7 | 0.00 | 0.00 | 0.00 | 44 | 1009.9 |
| 20260508205656 | 23 | 232 | 4.8 | 9.7 | 0.00 | 0.00 | 0.00 | 40 | 1010.0 |
| 20260508205153 | 23 | 239 | 0.0 | 6.4 | 0.00 | 0.00 | 0.00 | 42 | 1009.9 |
| 20260508204650 | 22 | 165 | 1.6 | 24.1 | 0.00 | 0.00 | 0.00 | 42 | 1009.8 |
| 20260508204151 | 23 | 201 | 6.4 | 16.1 | 0.00 | 0.00 | 0.00 | 39 | 1010.0 |
| 20260508203648 | 24 | 240 | 3.2 | 11.3 | 0.00 | 0.00 | 0.00 | 40 | 1010.2 |
| 20260508203147 | 24 | 253 | 4.8 | 11.3 | 0.00 | 0.00 | 0.00 | 40 | 1010.3 |
| 20260508202648 | 24 | 223 | 1.6 | 11.3 | 0.00 | 0.00 | 0.00 | 41 | 1010.5 |
| 20260508202149 | 23 | 185 | 4.8 | 9.7 | 0.00 | 0.00 | 0.00 | 41 | 1010.6 |
| 20260508201646 | 23 | 279 | 8.0 | 8.0 | 0.00 | 0.00 | 0.00 | 42 | 1010.6 |
| 20260508201145 | 23 | 267 | 6.4 | 9.7 | 0.00 | 0.00 | 0.00 | 41 | 1010.7 |
| 20260508200645 | 23 | 222 | 0.0 | 9.7 | 0.00 | 0.00 | 0.00 | 39 | 1010.8 |
| 20260508200144 | 23 | 219 | 4.8 | 14.5 | 0.00 | 0.00 | 0.00 | 42 | 1010.9 |
| 20260508195645 | 23 | 203 | 6.4 | 11.3 | 0.00 | 0.00 | 0.00 | 41 | 1011.0 |
| 20260508195150 | 23 | 178 | 1.6 | 8.0 | 0.00 | 0.00 | 0.00 | 38 | 1011.3 |
| 20260508194648 | 23 | 239 | 4.8 | 6.4 | 0.00 | 0.00 | 0.00 | 43 | 1011.3 |
| 20260508194144 | 23 | 243 | 1.6 | 8.0 | 0.00 | 0.00 | 0.00 | 43 | 1011.4 |
| 20260508193644 | 23 | 205 | 6.4 | 11.3 | 0.00 | 0.00 | 0.00 | 39 | 1011.5 |
| 20260508193146 | 23 | 241 | 3.2 | 16.1 | 0.00 | 0.00 | 0.00 | 37 | 1011.4 |
| 20260508192648 | 23 | 226 | 1.6 | 9.7 | 0.00 | 0.00 | 0.00 | 43 | 1011.4 |
| 20260508192145 | 23 | 234 | 3.2 | 12.9 | 0.00 | 0.00 | 0.00 | 45 | 1011.3 |
| 20260508191645 | 22 | 153 | 4.8 | 17.7 | 0.00 | 0.00 | 0.00 | 44 | 1011.3 |
| 20260508191143 | 22 | 187 | 14.5 | 17.7 | 0.00 | 0.00 | 0.00 | 37 | 1011.3 |
| 20260508190643 | 22 | 227 | 3.2 | 6.4 | 0.00 | 0.00 | 0.00 | 40 | 1011.3 |
| 20260508190145 | 22 | 191 | 4.8 | 11.3 | 0.00 | 0.00 | 0.00 | 43 | 1011.4 |
| 20260508185640 | 22 | 217 | 3.2 | 14.5 | 0.00 | 0.00 | 0.00 | 41 | 1011.4 |
| 20260508185140 | 22 | 177 | 4.8 | 17.7 | 0.00 | 0.00 | 0.00 | 43 | 1011.3 |
| 20260508184640 | 22 | 172 | 16.1 | 17.7 | 0.00 | 0.00 | 0.00 | 38 | 1011.4 |
| 20260508184139 | 22 | 129 | 4.8 | 8.0 | 0.00 | 0.00 | 0.00 | 42 | 1011.5 |
| 20260508183645 | 22 | 216 | 3.2 | 17.7 | 0.00 | 0.00 | 0.00 | 46 | 1011.5 |
| 20260508183139 | 22 | 216 | 9.7 | 17.7 | 0.00 | 0.00 | 0.00 | 43 | 1011.5 |
| 20260508182638 | 22 | 201 | 3.2 | 4.8 | 0.00 | 0.00 | 0.00 | 44 | 1011.6 |
| 20260508182138 | 21 | 282 | 1.6 | 12.9 | 0.00 | 0.00 | 0.00 | 42 | 1011.9 |
| 20260508181641 | 21 | 192 | 3.2 | 17.7 | 0.00 | 0.00 | 0.00 | 47 | 1012.0 |
| 20260508181139 | 21 | 171 | 12.9 | 22.5 | 0.00 | 0.00 | 0.00 | 46 | 1012.0 |
| 20260508180639 | 22 | 210 | 6.4 | 14.5 | 0.00 | 0.00 | 0.00 | 48 | 1012.1 |
| 20260508180138 | 22 | 167 | 6.4 | 6.4 | 0.00 | 0.00 | 0.00 | 45 | 1012.2 |
| 20260508175638 | 22 | 203 | 3.2 | 9.7 | 0.00 | 0.00 | 0.00 | 44 | 1012.2 |
| 20260508175140 | 21 | 260 | 1.6 | 11.3 | 0.00 | 0.00 | 0.00 | 46 | 1012.3 |
| 20260508174638 | 21 | 215 | 6.4 | 14.5 | 0.00 | 0.00 | 0.00 | 45 | 1012.5 |
| 20260508174137 | 21 | 196 | 0.0 | 12.9 | 0.00 | 0.00 | 0.00 | 45 | 1012.6 |
| 20260508173637 | 21 | 191 | 12.9 | 22.5 | 0.00 | 0.00 | 0.00 | 41 | 1012.7 |
| 20260508173137 | 21 | 208 | 14.5 | 24.1 | 0.00 | 0.00 | 0.00 | 38 | 1012.8 |
| 20260508172636 | 22 | 217 | 0.0 | 9.7 | 0.00 | 0.00 | 0.00 | 44 | 1012.9 |
| 20260508172136 | 21 | 232 | 1.6 | 12.9 | 0.00 | 0.00 | 0.00 | 43 | 1013.1 |
| 20260508171636 | 21 | 254 | 3.2 | 6.4 | 0.00 | 0.00 | 0.00 | 46 | 1013.1 |
| 20260508171135 | 21 | 215 | 6.4 | 22.5 | 0.00 | 0.00 | 0.00 | 47 | 1013.1 |
| 20260508170635 | 20 | 220 | 8.0 | 16.1 | 0.00 | 0.00 | 0.00 | 49 | 1013.2 |
| 20260508170135 | 20 | 184 | 14.5 | 24.1 | 0.00 | 0.00 | 0.00 | 42 | 1013.3 |
| 20260508165635 | 21 | 201 | 11.3 | 12.9 | 0.00 | 0.00 | 0.00 | 48 | 1013.4 |
| 20260508165134 | 20 | 239 | 3.2 | 11.3 | 0.00 | 0.00 | 0.00 | 47 | 1013.5 |
| 20260508164634 | 20 | 208 | 4.8 | 17.7 | 0.00 | 0.00 | 0.00 | 47 | 1013.6 |
| 20260508164133 | 20 | 233 | 6.4 | 14.5 | 0.00 | 0.00 | 0.00 | 44 | 1013.6 |
| 20260508163633 | 20 | 170 | 1.6 | 24.1 | 0.00 | 0.00 | 0.00 | 47 | 1013.8 |
| 20260508163132 | 20 | 189 | 8.0 | 8.0 | 0.00 | 0.00 | 0.00 | 49 | 1013.9 |
| 20260508162631 | 20 | 241 | 4.8 | 17.7 | 0.00 | 0.00 | 0.00 | 46 | 1014.1 |
| 20260508162131 | 20 | 192 | 9.7 | 14.5 | 0.00 | 0.00 | 0.00 | 46 | 1014.2 |
| 20260508161631 | 20 | 202 | 3.2 | 14.5 | 0.00 | 0.00 | 0.00 | 45 | 1014.3 |
| 20260508161131 | 20 | 195 | 9.7 | 9.7 | 0.00 | 0.00 | 0.00 | 54 | 1014.3 |
| 20260508160630 | 20 | 284 | 6.4 | 11.3 | 0.00 | 0.00 | 0.00 | 45 | 1014.4 |
| 20260508160130 | 20 | 199 | 9.7 | 16.1 | 0.00 | 0.00 | 0.00 | 47 | 1014.5 |
| 20260508155630 | 20 | 185 | 1.6 | 12.9 | 0.00 | 0.00 | 0.00 | 46 | 1014.5 |
| 20260508155131 | 20 | 189 | 8.0 | 12.9 | 0.00 | 0.00 | 0.00 | 48 | 1014.6 |
| 20260508154629 | 20 | 225 | 4.8 | 14.5 | 0.00 | 0.00 | 0.00 | 49 | 1014.7 |
| 20260508154130 | 20 | 180 | 1.6 | 11.3 | 0.00 | 0.00 | 0.00 | 43 | 1014.9 |
| 20260508153630 | 20 | 208 | 3.2 | 8.0 | 0.00 | 0.00 | 0.00 | 48 | 1014.9 |
| 20260508153129 | 20 | 194 | 0.0 | 9.7 | 0.00 | 0.00 | 0.00 | 44 | 1015.2 |
| 20260508152631 | 20 | 261 | 0.0 | 8.0 | 0.00 | 0.00 | 0.00 | 48 | 1015.2 |
| 20260508152130 | 20 | 158 | 3.2 | 9.7 | 0.00 | 0.00 | 0.00 | 47 | 1015.3 |
| 20260508151629 | 20 | 189 | 1.6 | 6.4 | 0.00 | 0.00 | 0.00 | 52 | 1015.4 |
| 20260508151128 | 20 | 265 | 3.2 | 8.0 | 0.00 | 0.00 | 0.00 | 51 | 1015.5 |
| 20260508150627 | 20 | 136 | 0.0 | 11.3 | 0.00 | 0.00 | 0.00 | 48 | 1015.6 |
| 20260508150128 | 20 | 122 | 0.0 | 4.8 | 0.00 | 0.00 | 0.00 | 49 | 1015.6 |
| 20260508145627 | 20 | 213 | 1.6 | 8.0 | 0.00 | 0.00 | 0.00 | 48 | 1015.7 |
| 20260508145126 | 20 | 241 | 6.4 | 6.4 | 0.00 | 0.00 | 0.00 | 49 | 1015.8 |
| 20260508144626 | 20 | 277 | 0.0 | 4.8 | 0.00 | 0.00 | 0.00 | 49 | 1015.9 |
| 20260508144125 | 19 | 241 | 0.0 | 4.8 | 0.00 | 0.00 | 0.00 | 52 | 1015.9 |
| 20260508143625 | 19 | 213 | 1.6 | 6.4 | 0.00 | 0.00 | 0.00 | 51 | 1015.9 |
| 20260508143125 | 19 | 206 | 0.0 | 4.8 | 0.00 | 0.00 | 0.00 | 51 | 1015.9 |
| 20260508142625 | 18 | 227 | 1.6 | 9.7 | 0.00 | 0.00 | 0.00 | 52 | 1016.1 |
| 20260508142124 | 18 | 234 | 0.0 | 4.8 | 0.00 | 0.00 | 0.00 | 55 | 1016.1 |
| 20260508141624 | 18 | 257 | 3.2 | 6.4 | 0.00 | 0.00 | 0.00 | 57 | 1016.2 |
| 20260508141124 | 18 | 216 | 0.0 | 8.0 | 0.00 | 0.00 | 0.00 | 56 | 1016.1 |
| 20260508140623 | 18 | 189 | 1.6 | 3.2 | 0.00 | 0.00 | 0.00 | 55 | 1016.1 |
| 20260508140123 | 17 | 305 | 0.0 | 9.7 | 0.00 | 0.00 | 0.00 | 54 | 1016.2 |
| 20260508135623 | 17 | 205 | 1.6 | 11.3 | 0.00 | 0.00 | 0.00 | 54 | 1016.2 |
| 20260508135122 | 17 | 213 | 1.6 | 4.8 | 0.00 | 0.00 | 0.00 | 57 | 1016.3 |
| 20260508134622 | 17 | 182 | 1.6 | 4.8 | 0.00 | 0.00 | 0.00 | 56 | 1016.3 |
| 20260508134123 | 16 | 219 | 1.6 | 6.4 | 0.00 | 0.00 | 0.00 | 56 | 1016.4 |
| 20260508133628 | 16 | 234 | 0.0 | 6.4 | 0.00 | 0.00 | 0.00 | 60 | 1016.5 |
| 20260508133127 | 16 | 233 | 0.0 | 9.7 | 0.00 | 0.00 | 0.00 | 59 | 1016.5 |
| 20260508132621 | 16 | 264 | 4.8 | 8.0 | 0.00 | 0.00 | 0.00 | 58 | 1016.5 |
| 20260508132121 | 15 | 178 | 0.0 | 3.2 | 0.00 | 0.00 | 0.00 | 59 | 1016.5 |
| 20260508131623 | 15 | 184 | 0.0 | 6.4 | 0.00 | 0.00 | 0.00 | 64 | 1016.7 |
| 20260508131123 | 14 | 156 | 0.0 | 3.2 | 0.00 | 0.00 | 0.00 | 66 | 1016.6 |
| 20260508130620 | 13 | 239 | 0.0 | 1.6 | 0.00 | 0.00 | 0.00 | 69 | 1016.7 |
| 20260508130120 | 13 | 187 | 0.0 | 6.4 | 0.00 | 0.00 | 0.00 | 65 | 1016.8 |
| 20260508125622 | 12 | 185 | 0.0 | 4.8 | 0.00 | 0.00 | 0.00 | 71 | 1016.9 |
| 20260508125119 | 12 | 203 | 3.2 | 6.4 | 0.00 | 0.00 | 0.00 | 71 | 1016.8 |
| 20260508124619 | 12 | 194 | 6.4 | 6.4 | 0.00 | 0.00 | 0.00 | 73 | 1016.8 |
| 20260508124121 | 11 | 202 | 0.0 | 9.7 | 0.00 | 0.00 | 0.00 | 76 | 1016.9 |
| 20260508123619 | 11 | 184 | 0.0 | 6.4 | 0.00 | 0.00 | 0.00 | 78 | 1016.9 |
| 20260508123119 | 11 | 171 | 3.2 | 6.4 | 0.00 | 0.00 | 0.00 | 76 | 1017.0 |
| 20260508122619 | 10 | 192 | 3.2 | 6.4 | 0.00 | 0.00 | 0.00 | 76 | 1017.0 |
| 20260508122125 | 10 | 192 | 3.2 | 6.4 | 0.00 | 0.00 | 0.00 | 77 | 1017.0 |
| 20260508121636 | 10 | 189 | 4.8 | 8.0 | 0.00 | 0.00 | 0.00 | 80 | 1017.1 |
| 20260508121120 | 9 | 199 | 1.6 | 6.4 | 0.00 | 0.00 | 0.00 | 82 | 1017.1 |
| 20260508120622 | 8 | 154 | 1.6 | 8.0 | 0.00 | 0.00 | 0.00 | 83 | 1017.1 |
| 20260508120116 | 8 | 136 | 0.0 | 3.2 | 0.00 | 0.00 | 0.00 | 85 | 1017.1 |
| 20260508115616 | 8 | 112 | 0.0 | 1.6 | 0.00 | 0.00 | 0.00 | 85 | 1017.0 |
| 20260508115118 | 8 | 157 | 0.0 | 0.0 | 0.00 | 0.00 | 0.00 | 85 | 1017.0 |
| 20260508114616 | 7 | 172 | 0.0 | 1.6 | 0.00 | 0.00 | 0.00 | 86 | 1017.0 |
| 20260508114117 | 7 | 140 | 0.0 | 1.6 | 0.00 | 0.00 | 0.00 | 85 | 1017.0 |
| 20260508113621 | 7 | 153 | 0.0 | 4.8 | 0.00 | 0.00 | 0.00 | 86 | 1017.0 |
| 20260508113117 | 6 | 194 | 4.8 | 4.8 | 0.00 | 0.00 | 0.00 | 86 | 1016.9 |
| 20260508112617 | 6 | 209 | 4.8 | 4.8 | 0.00 | 0.00 | 0.00 | 87 | 1016.9 |
| 20260508112115 | 6 | 194 | 1.6 | 4.8 | 0.00 | 0.00 | 0.00 | 87 | 1016.8 |
| 20260508111614 | 6 | 171 | 1.6 | 6.4 | 0.00 | 0.00 | 0.00 | 88 | 1016.7 |
| 20260508111117 | 6 | 191 | 4.8 | 4.8 | 0.00 | 0.00 | 0.00 | 90 | 1016.6 |
| 20260508110615 | 5 | 192 | 1.6 | 4.8 | 0.00 | 0.00 | 0.00 | 90 | 1016.6 |
| 20260508110117 | 5 | 191 | 1.6 | 1.6 | 0.00 | 0.00 | 0.00 | 90 | 1016.5 |
| 20260508105619 | 5 | 196 | 0.0 | 0.0 | 0.00 | 0.00 | 0.00 | 90 | 1016.5 |
| 20260508105119 | 5 | 175 | 0.0 | 0.0 | 0.00 | 0.00 | 0.00 | 89 | 1016.4 |
| 20260508104617 | 5 | 175 | 0.0 | 0.0 | 0.00 | 0.00 | 0.00 | 89 | 1016.4 |
| 20260508104145 | 5 | 175 | 0.0 | 0.0 | 0.00 | 0.00 | 0.00 | 89 | 1016.4 |
| 20260508104118 | 5 | 175 | 0.0 | 0.0 | 0.00 | 0.00 | 0.00 | 89 | 1016.4 |
| 20260508103614 | 5 | 175 | 0.0 | 0.0 | 0.00 | 0.00 | 0.00 | 89 | 1016.4 |
| 20260508103231 | 6 | 175 | 0.0 | 0.0 | 0.00 | 0.00 | 0.00 | 88 | 1016.3 |
| 20260508103115 | 5 | 175 | 0.0 | 0.0 | 0.00 | 0.00 | 0.00 | 88 | 1016.3 |
| 20260508102635 | 6 | 175 | 0.0 | 0.0 | 0.00 | 0.00 | 0.00 | 88 | 1016.3 |
| 20260508102616 | 6 | 175 | 0.0 | 0.0 | 0.00 | 0.00 | 0.00 | 88 | 1016.3 |
| 20260508102115 | 6 | 175 | 0.0 | 0.0 | 0.00 | 0.00 | 0.00 | 88 | 1016.3 |
| 20260508101614 | 6 | 175 | 0.0 | 0.0 | 0.00 | 0.00 | 0.00 | 88 | 1016.1 |
| 20260508101112 | 6 | 175 | 0.0 | 0.0 | 0.00 | 0.00 | 0.00 | 87 | 1016.2 |
| 20260508100647 | 6 | 175 | 0.0 | 0.0 | 0.00 | 0.00 | 0.00 | 86 | 1016.3 |
| 20260508100610 | 6 | 175 | 0.0 | 0.0 | 0.00 | 0.00 | 0.00 | 86 | 1016.3 |
| 20260508100153 | 6 | 175 | 0.0 | 0.0 | 0.00 | 0.00 | 0.00 | 86 | 1016.1 |
| 20260508100109 | 6 | 175 | 0.0 | 0.0 | 0.00 | 0.00 | 0.00 | 86 | 1016.1 |
| 20260508095611 | 6 | 175 | 0.0 | 0.0 | 0.00 | 0.00 | 0.00 | 87 | 1016.1 |
| 20260508095220 | 6 | 175 | 0.0 | 0.0 | 0.00 | 0.00 | 0.00 | 86 | 1016.3 |
| 20260508095109 | 6 | 175 | 0.0 | 0.0 | 0.00 | 0.00 | 0.00 | 86 | 1016.2 |
| 20260508094608 | 6 | 175 | 0.0 | 0.0 | 0.00 | 0.00 | 0.00 | 86 | 1016.3 |
| 20260508094108 | 6 | 175 | 0.0 | 0.0 | 0.00 | 0.00 | 0.00 | 86 | 1016.3 |
| 20260508093611 | 6 | 175 | 0.0 | 0.0 | 0.00 | 0.00 | 0.00 | 86 | 1016.3 |
| 20260508093108 | 6 | 175 | 0.0 | 0.0 | 0.00 | 0.00 | 0.00 | 85 | 1016.2 |
| 20260508092612 | 6 | 175 | 0.0 | 0.0 | 0.00 | 0.00 | 0.00 | 86 | 1016.3 |
| 20260508092110 | 6 | 175 | 0.0 | 0.0 | 0.00 | 0.00 | 0.00 | 87 | 1016.3 |
| 20260508091608 | 6 | 175 | 0.0 | 0.0 | 0.00 | 0.00 | 0.00 | 87 | 1016.3 |
| 20260508091106 | 6 | 175 | 0.0 | 0.0 | 0.00 | 0.00 | 0.00 | 86 | 1016.3 |
| 20260508090608 | 6 | 175 | 0.0 | 0.0 | 0.00 | 0.00 | 0.00 | 86 | 1016.3 |
| 20260508090109 | 6 | 175 | 0.0 | 0.0 | 0.00 | 0.00 | 0.00 | 87 | 1016.2 |
| 20260508085605 | 6 | 175 | 0.0 | 0.0 | 0.00 | 0.00 | 0.00 | 89 | 1016.2 |
| 20260508085105 | 5 | 175 | 0.0 | 0.0 | 0.00 | 0.00 | 0.00 | 90 | 1016.2 |
| 20260508084908 | 5 | 175 | 0.0 | 0.0 | 0.00 | 0.00 | 0.00 | 92 | 1016.3 |
| 20260508084606 | 5 | 175 | 0.0 | 0.0 | 0.00 | 0.00 | 0.00 | 91 | 1016.2 |
| 20260508084226 | 5 | 175 | 0.0 | 0.0 | 0.00 | 0.00 | 0.00 | 93 | 1016.2 |
| 20260508084107 | 5 | 175 | 0.0 | 0.0 | 0.00 | 0.00 | 0.00 | 92 | 1016.3 |
| 20260508083604 | 5 | 175 | 0.0 | 0.0 | 0.00 | 0.00 | 0.00 | 92 | 1016.2 |
| 20260508083112 | 5 | 175 | 0.0 | 0.0 | 0.00 | 0.00 | 0.00 | 92 | 1016.2 |
| 20260508082642 | 5 | 175 | 0.0 | 0.0 | 0.00 | 0.00 | 0.00 | 93 | 1016.2 |
| 20260508082607 | 5 | 175 | 0.0 | 0.0 | 0.00 | 0.00 | 0.00 | 93 | 1016.2 |
| 20260508082110 | 5 | 175 | 0.0 | 0.0 | 0.00 | 0.00 | 0.00 | 93 | 1016.2 |
| 20260508081645 | 5 | 171 | 0.0 | 1.6 | 0.00 | 0.00 | 0.00 | 92 | 1016.3 |
| 20260508081604 | 5 | 175 | 0.0 | 1.6 | 0.00 | 0.00 | 0.00 | 93 | 1016.2 |
| 20260508081104 | 5 | 171 | 0.0 | 1.6 | 0.00 | 0.00 | 0.00 | 92 | 1016.3 |
| 20260508080603 | 5 | 109 | 0.0 | 0.0 | 0.00 | 0.00 | 0.00 | 93 | 1016.3 |
| 20260508080104 | 5 | 109 | 0.0 | 0.0 | 0.00 | 0.00 | 0.00 | 92 | 1016.2 |
| 20260508075602 | 5 | 109 | 0.0 | 0.0 | 0.00 | 0.00 | 0.00 | 93 | 1016.2 |
| 20260508075102 | 5 | 187 | 0.0 | 0.0 | 0.00 | 0.00 | 0.00 | 92 | 1016.3 |
| 20260508074713 | 5 | 187 | 0.0 | 0.0 | 0.00 | 0.00 | 0.00 | 92 | 1016.2 |
| 20260508074602 | 5 | 187 | 0.0 | 0.0 | 0.00 | 0.00 | 0.00 | 92 | 1016.2 |
| 20260508074104 | 5 | 187 | 0.0 | 0.0 | 0.00 | 0.00 | 0.00 | 92 | 1016.2 |
| 20260508073703 | 6 | 181 | 0.0 | 1.6 | 0.00 | 0.00 | 0.00 | 91 | 1016.2 |
| 20260508073601 | 5 | 187 | 0.0 | 0.0 | 0.00 | 0.00 | 0.00 | 93 | 1016.2 |
| 20260508073101 | 5 | 187 | 0.0 | 0.0 | 0.00 | 0.00 | 0.00 | 92 | 1016.2 |
| 20260508072605 | 6 | 181 | 0.0 | 1.6 | 0.00 | 0.00 | 0.00 | 91 | 1016.2 |
| 20260508072100 | 6 | 191 | 0.0 | 0.0 | 0.00 | 0.00 | 0.00 | 93 | 1016.2 |
| 20260508071600 | 6 | 191 | 0.0 | 0.0 | 0.00 | 0.00 | 0.00 | 92 | 1016.1 |
| 20260508071201 | 6 | 191 | 0.0 | 0.0 | 0.00 | 0.00 | 0.00 | 92 | 1016.1 |
| 20260508071059 | 6 | 191 | 0.0 | 0.0 | 0.00 | 0.00 | 0.00 | 92 | 1016.1 |
| 20260508070733 | 6 | 191 | 0.0 | 0.0 | 0.00 | 0.00 | 0.00 | 92 | 1016.1 |
| 20260508070600 | 6 | 191 | 0.0 | 0.0 | 0.00 | 0.00 | 0.00 | 92 | 1016.1 |
| 20260508070100 | 6 | 191 | 0.0 | 0.0 | 0.00 | 0.00 | 0.00 | 92 | 1016.1 |
| 20260508065936 | 6 | 191 | 0.0 | 0.0 | 0.00 | 0.00 | 0.00 | 91 | 1016.2 |
| 20260508065603 | 6 | 191 | 0.0 | 0.0 | 0.00 | 0.00 | 0.00 | 92 | 1016.1 |
| 20260508065059 | 6 | 191 | 0.0 | 0.0 | 0.00 | 0.00 | 0.00 | 92 | 1016.1 |
| 20260508064559 | 6 | 191 | 0.0 | 0.0 | 0.00 | 0.00 | 0.00 | 91 | 1016.2 |
| 20260508064413 | 6 | 216 | 0.0 | 0.0 | 0.00 | 0.00 | 0.00 | 91 | 1016.1 |
| 20260508064058 | 6 | 216 | 0.0 | 0.0 | 0.00 | 0.00 | 0.00 | 91 | 1016.1 |
| 20260508063557 | 6 | 216 | 0.0 | 0.0 | 0.00 | 0.00 | 0.00 | 91 | 1016.2 |
| 20260508063058 | 6 | 216 | 0.0 | 0.0 | 0.00 | 0.00 | 0.00 | 91 | 1016.2 |
| 20260508062557 | 6 | 216 | 0.0 | 0.0 | 0.00 | 0.00 | 0.00 | 91 | 1016.2 |
| 20260508062056 | 6 | 216 | 0.0 | 0.0 | 0.00 | 0.00 | 0.00 | 91 | 1016.2 |
| 20260508061558 | 6 | 216 | 0.0 | 0.0 | 0.00 | 0.00 | 0.00 | 91 | 1016.2 |
| 20260508061246 | 6 | 216 | 0.0 | 0.0 | 0.00 | 0.00 | 0.00 | 91 | 1016.2 |
| 20260508061124 | 7 | 216 | 0.0 | 0.0 | 0.00 | 0.00 | 0.00 | 89 | 1016.4 |
| 20260508061057 | 6 | 216 | 0.0 | 0.0 | 0.00 | 0.00 | 0.00 | 91 | 1016.2 |
| 20260508060556 | 6 | 216 | 0.0 | 0.0 | 0.00 | 0.00 | 0.00 | 91 | 1016.1 |
| 20260508060059 | 6 | 216 | 0.0 | 0.0 | 0.00 | 0.00 | 0.00 | 90 | 1016.1 |
| 20260508055557 | 6 | 216 | 0.0 | 0.0 | 0.00 | 0.00 | 0.00 | 90 | 1016.2 |
| 20260508055057 | 6 | 216 | 0.0 | 0.0 | 0.00 | 0.00 | 0.00 | 89 | 1016.2 |
| 20260508054557 | 7 | 216 | 0.0 | 0.0 | 0.00 | 0.00 | 0.00 | 90 | 1016.3 |
| 20260508054054 | 7 | 216 | 0.0 | 0.0 | 0.00 | 0.00 | 0.00 | 89 | 1016.3 |